Location: Carabito
(9.8355°N, 67.9249°W)
Time: 21:34:07
(UTC+00:00)

MOS 1-B - Pass Details

Date: 23 May 2024
Orbit: 904 x 912 km, 99.3° (Epoch: 25 June)

Event Time Altitude Azimuth Distance (km) Brightness Sun altitude
Exits shadow 00:59:19 78° 332° (NNW) 929 4.3 -30.2°
Drops below altitude 10° 01:04:39 10° 346° (NNW) 2,581 7.2 -31.4°
Sets 01:07:03 0° 347° (NNW) 3,520 8.0 -31.9°
